This is the latest recevied weather packets stored in our database for station/object K1BWE-1. If no packets are shown the sender has not sent any weather packets the latest 10 day(s).
| Time | Temp. | Humidity | Pressure | Rain* | Wind** | Luminosity | Snow |
|---|---|---|---|---|---|---|---|
| 1777735315 | 24.44° C | 25% | 1016.8 hPa | 0 mm | - | 375 W/m² | - |
| 1777735013 | 24.44° C | 25% | 1016.5 hPa | 0 mm | - | 326 W/m² | - |
| 1777734710 | 23.89° C | 25% | 1016.6 hPa | 0 mm | - | 294 W/m² | - |
| 1777734407 | 23.33° C | 25% | 1016.5 hPa | 0 mm | - | 267 W/m² | - |
| 1777734103 | 23.33° C | 26% | 1016.2 hPa | 0 mm | - | 269 W/m² | - |
| 1777733800 | 22.78° C | 27% | 1016.3 hPa | 0 mm | - | 269 W/m² | - |
| 1777733497 | 22.22° C | 28% | 1016.5 hPa | 0 mm | - | 249 W/m² | - |
| 1777733192 | 21.67° C | 27% | 1016.4 hPa | 0 mm | - | 242 W/m² | - |
| 1777732889 | 21.67° C | 29% | 1016.3 hPa | 0 mm | - | 244 W/m² | - |
| 1777732586 | 20.56° C | 29% | 1016.2 hPa | 0 mm | - | 204 W/m² | - |
| 1777732284 | 20.56° C | 31% | 1016.3 hPa | 0 mm | - | 172 W/m² | - |
| 1777731981 | 20° C | 31% | 1016.1 hPa | 0 mm | - | 170 W/m² | - |
| 1777731677 | 19.44° C | 31% | 1016.2 hPa | 0 mm | - | 147 W/m² | - |
| 1777731375 | 19.44° C | 32% | 1016.2 hPa | 0 mm | - | 130 W/m² | - |
| 1777731072 | 19.44° C | 30% | 1016.2 hPa | 0 mm | - | 118 W/m² | - |
| 1777730771 | 19.44° C | 30% | 1016 hPa | 0 mm | - | 122 W/m² | - |
| 1777730467 | 18.33° C | 32% | 1016.1 hPa | 0 mm | - | 126 W/m² | - |
| 1777730163 | 17.22° C | 34% | 1016.2 hPa | 0 mm | - | 122 W/m² | - |
| 1777729860 | 17.22° C | 34% | 1015.9 hPa | 0 mm | - | 71 W/m² | - |
| 1777729556 | 17.22° C | 34% | 1015.9 hPa | 0 mm | - | 39 W/m² | - |
| 1777729253 | 17.78° C | 34% | 1015.9 hPa | 0 mm | - | 46 W/m² | - |
| 1777728950 | 17.22° C | 34% | 1015.9 hPa | 0 mm | - | 40 W/m² | - |
| 1777728647 | 16.67° C | 35% | 1016.1 hPa | 0 mm | - | 39 W/m² | - |
| 1777728344 | 17.22° C | 34% | 1015.6 hPa | 0 mm | - | 30 W/m² | - |
| 1777728041 | 17.22° C | 35% | 1015.9 hPa | 0 mm | - | 29 W/m² | - |
* Rain latest hour (hover to see other rain measurements)
** Current wind speed in m/s (hover to see current wind gust speed)